Regional Weather Roundup
Issued by NWS

Home | Current Version | Previous Version | Graphics & Text | Print | Product List | Glossary On
Versions: 1 2 3 4 5 6 7 8 9 10 11 12 13 14 15 16 17 18 19 20 21 22 23 24 25 26 27 28 29 30 31 32 33 34 35 36 37 38 39 40 41 42 43 44 45 46 47 48 49 50
000
ASUS43 KTOP 222359
RWRKS

WEATHER ROUNDUP FOR KANSAS
NATIONAL WEATHER SERVICE GOODLAND KS
700 PM CDT TUE AUG 22 2017

NOTE:  "FAIR" INDICATES FEW OR NO CLOUDS BELOW 12,000 FEET WITH NO
SIGNIFICANT WEATHER AND/OR OBSTRUCTIONS TO VISIBILITY.

KSZ001>006-013>018-027>032-041>047-230100-
NORTHWEST KANSAS

CITY           SKY/WX    TMP DP  RH WIND       PRES   REMARKS
GOODLAND       SUNNY     76  57  51 S13       30.21F
6HR MIN TEMP:  71; 6HR MAX TEMP:  79;

HAYS           SUNNY     81  49  32 NE15      30.14F
HILL CITY      SUNNY     82  47  29 NE9       30.17F
6HR MIN TEMP:  81; 6HR MAX TEMP:  85;

RUSSELL        SUNNY     82  46  28 NE15      30.13F
6HR MIN TEMP:  81; 6HR MAX TEMP:  87;

$$

KSZ061>065-074>080-084>089-230100-
SOUTHWEST KANSAS

CITY           SKY/WX    TMP DP  RH WIND       PRES   REMARKS
DODGE CITY     SUNNY     83  53  35 NE12      30.15R
6HR MIN TEMP:  82; 6HR MAX TEMP:  87;

ELKHART          N/A     77  64  64 E7          N/A
GARDEN CITY    SUNNY     83  54  36 E13       30.16F
6HR MIN TEMP:  78; 6HR MAX TEMP:  86;

GREAT BEND     SUNNY     83  51  33 NE14      30.13S
LIBERAL        SUNNY     83  61  47 NE10      30.16R
$$

KSZ066>073-081>083-090>101-230100-
SOUTHEAST KANSAS

CITY           SKY/WX    TMP DP  RH WIND       PRES   REMARKS
CHANUTE        SUNNY     82  64  54 N7        30.07S
6HR MIN TEMP:  74; 6HR MAX TEMP:  84; 6HR PCP: TRACE;

COFFEYVILLE    PTSUNNY   80  71  74 NE12      30.04F
6HR MIN TEMP:  78; 6HR MAX TEMP:  84;

HUTCHINSON     SUNNY     82  53  36 NE6       30.10R
6HR MIN TEMP:  82; 6HR MAX TEMP:  85;

MEDICINE LODGE   N/A     84  61  45 NE15      30.09R
NEWTON         SUNNY     80  53  39 NE12      30.11S
PARSONS        MOSUNNY   81  69  67 N3        30.07S
6HR MIN TEMP:  75; 6HR MAX TEMP:  82; 6HR PCP: TRACE;

WICHITA INTL   MOSUNNY   82  59  45 E12       30.09R
6HR MIN TEMP:  78; 6HR MAX TEMP:  87;

WICHITA JABRA  SUNNY     79  63  57 NE9       30.09S
6HR MIN TEMP:  76; 6HR MAX TEMP:  84;

WINFIELD       PTSUNNY   81  67  62 NE14G21   30.08S
6HR MIN TEMP:  79; 6HR MAX TEMP:  87;

$$

KSZ007>012-019>026-033>040-048>060-102>105-230100-
NORTHEAST KANSAS

CITY           SKY/WX    TMP DP  RH WIND       PRES   REMARKS
CONCORDIA      SUNNY     76  50  40 N13       30.14F
6HR MIN TEMP:  76; 6HR MAX TEMP:  82;

EMPORIA        SUNNY     78  60  53 N9        30.09S
6HR MIN TEMP:  78; 6HR MAX TEMP:  82;

LAWRENCE       SUNNY     76  58  53 NW7       30.09S
6HR MIN TEMP:  76; 6HR MAX TEMP:  81;

MANHATTAN      SUNNY     78  53  41 N7        30.11S
6HR MIN TEMP:  77; 6HR MAX TEMP:  83;

OLATHE IND     SUNNY     75  61  61 N12       30.09S
6HR MIN TEMP:  75; 6HR MAX TEMP:  79;

OLATHE EXE     SUNNY     77  60  55 N10       30.09S
6HR MIN TEMP:  76; 6HR MAX TEMP:  80;

SALINA         SUNNY     83  46  27 NE10      30.12R
6HR MIN TEMP:  83; 6HR MAX TEMP:  89;

TOPEKA BILLARD SUNNY     76  58  53 N8        30.10S
6HR MIN TEMP:  76; 6HR MAX TEMP:  82;

TOPEKA FORBES  SUNNY     77  57  50 N7        30.10S
6HR MIN TEMP:  77; 6HR MAX TEMP:  82;

$$



USA.gov is the U.S. government's official web portal to all federal, state and local government web resources and services.